Location: Tuebingen alte Sternwarte
(48.5376°N, 9.0555°E)
Time: 06:20:22
(UTC+02:00)

OTV 5 (USA 277) - Pass Details

Date: 26 June 2018
Orbit: 312 x 321 km, 54.5° (Epoch: 05 July)

Event Time Altitude Azimuth Distance (km) Brightness Sun altitude
Rises 00:35:28 0° 299° (WNW) 2,051 ? -17.2°
Reaches altitude 10° 00:37:26 10° 299° (WNW) 1,219 ? -17.3°
Enters shadow 00:40:05 84° 264° (W) 322 ? -17.3°
